Location: Kott?ru
(16.6209°N, 80.6208°E)
Time: 13:42:23
(UTC+00:00)

SJ 16-02 - Pass Details

Date: 18 September 2020
Orbit: 606 x 616 km, 75.0° (Epoch: 30 October)

Event Time Altitude Azimuth Distance (km) Brightness Sun altitude
Rises 23:18:35 0° 353° (N) 2,862 4.8 -17.0°
Reaches altitude 10° 23:20:50 10° 356° (N) 1,959 4.0 -16.4°
Maximum altitude 23:25:10 61° 77° (ENE) 693 1.9 -15.4°
Drops below altitude 10° 23:29:29 10° 158° (SSE) 1,962 4.1 -14.4°
Sets 23:31:45 0° 161° (SSE) 2,867 5.0 -13.8°
